Location: Fours
(44.3167°N, 6.7000°E)
Time: 05:12:24
(UTC+00:00)

USA 267 - Pass Details

Date: 30 November 2020
Orbit: 1100 x 1107 km, 123.0° (Epoch: 18 January)

Event Time Altitude Azimuth Distance (km) Brightness Sun altitude
Exits shadow 16:31:01 - 72° (ENE) 3,210 5.0 -6.5°
Reaches altitude 10° 16:31:46 10° 69° (ENE) 2,962 4.8 -6.6°
Maximum altitude 16:37:21 31° 10° (N) 1,819 4.2 -7.5°
Drops below altitude 10° 16:42:56 10° 311° (NW) 2,969 5.9 -8.4°
Sets 16:45:41 0° 302° (WNW) 3,929 6.7 -8.9°
